Location: Kopernik Observatory
(42.0014°N, 76.0372°W)
Time: 10:51:00
(UTC-04:00)

Daily predictions for brighter satellites

Satellite Brightness Start Highest point End
(mag) Time Altitude Azimuth Time Altitude Azimuth Time Altitude Azimuth
AVUM R/B 2.7 21:15:17 10° S 21:17:29 44° ESE 21:19:55 10° NE
Cosmos 1980 Rocket 4.4 21:14:12 10° NW 21:18:31 23° W 21:22:50 10° SSW
Cosmos 2360 Rocket 2.5 21:14:01 10° NNW 21:19:34 54° ENE 21:25:06 10° SE
SL-16 R/B 2.8 21:15:08 10° NNW 21:20:43 60° WSW 21:26:16 10° S
In-Cosmos 22 4.4 21:15:27 10° S 21:21:14 84° W 21:27:01 10° N
SJ-11-01 4.4 21:18:01 10° S 21:22:43 81° WSW 21:27:30 10° NNW
Envisat 3.1 21:17:48 10° SSE 21:22:48 63° ENE 21:27:49 10° N
PSLV R/B 4.1 21:22:31 10° SE 21:25:19 33° ENE 21:28:08 10° N
Cosmos 304 Rocket 4.1 21:21:59 10° N 21:26:42 51° ENE 21:31:22 10° SE
ERS-1 Rocket 3.2 21:21:50 10° S 21:26:50 72° WSW 21:31:54 10° NNW
Cosmos 1437 3.6 21:26:19 10° SSE 21:29:18 33° E 21:32:19 10° NNE
Meteor 2-20 4.5 21:23:59 10° S 21:30:07 76° E 21:36:15 10° NNE
Cosmos 1908 3.2 21:26:36 10° N 21:30:30 70° E 21:34:23 10° SSE
Cosmos 2112 Rocket 4.4 21:27:51 10° N 21:32:57 49° ENE 21:37:55 11° SE
H-2A R/B 2.3 21:29:34 10° S 21:34:06 80° WSW 21:38:39 10° NNW
Cosmos 1777 Rocket 4.3 21:34:42 10° SSW 21:39:58 76° WNW 21:45:15 10° NNE
DELTA 2 R/B (1) 3.8 21:36:26 10° W 21:41:51 55° SSW 21:46:52 12° ESE
NOSS 3-1 (C) 3.9 21:37:03 10° S 21:42:20 37° ESE 21:48:05 10° NE
Cosmos 1674 2.7 21:39:29 10° S 21:43:18 89° E 21:47:11 10° N
ATLAS CENTAUR R/B 4.0 21:43:37 10° WNW 21:45:41 13° WSW 21:47:42 10° SW
Cosmos 2227 Rocket 4.0 21:45:19 11° ESE 21:47:04 12° E 21:49:12 10° ENE
Cosmos 1939 Rocket 3.6 21:47:44 10° S 21:51:34 49° W 21:55:23 10° NNW
Cosmos 1833 4.4 21:47:54 10° SSW 21:53:37 79° WNW 21:59:19 10° NNE
Cosmos 1300 3.4 21:50:44 10° N 21:54:21 38° ENE 21:56:54 17° SE
Cosmos 405 3.6 21:52:21 10° NNW 21:55:56 58° W 21:59:29 10° S
Cosmos 2333 Rocket 3.8 21:52:10 10° N 21:56:42 23° NE 22:01:13 10° ESE
Cosmos 1437 Rocket 4.1 21:57:13 10° NNW 22:00:44 36° W 22:04:16 10° SSW
H-2A R/B 3.3 21:58:30 14° ESE 22:02:13 29° ENE 22:06:49 10° N
Terra 3.3 22:00:09 13° ESE 22:03:08 23° ENE 22:06:51 10° NNE
YAOGAN 6 2.5 22:00:51 16° SSE 22:03:41 76° ENE 22:07:18 10° N
COSMOS 2428 2.8 22:03:12 10° NNW 22:08:52 66° ENE 22:13:00 19° SE
Cosmos 1680 Rocket 3.8 22:04:38 10° NNW 22:09:51 68° WSW 22:14:23 14° S
CZ-4 SHROUD 4.1 22:08:08 12° S 22:10:49 45° W 22:13:51 10° NNW
CZ-4B R/B 3.5 22:06:49 10° NNE 22:12:07 74° ESE 22:17:18 10° S
Cosmos 2297 Rocket 3.8 22:13:15 14° ESE 22:14:12 15° E 22:17:10 10° ENE
SPOT 1/Viking Rocket 3.5 22:10:08 16° SSE 22:14:16 82° ENE 22:19:27 10° NNW
Delta 2 Rocket 3.8 22:11:15 10° WSW 22:14:17 28° S 22:15:00 25° SSE
OAO 2 Rocket 4.4 22:11:53 10° SW 22:16:13 25° SSE 22:18:13 20° SE
Cosmos 1455 4.1 22:14:23 10° NNE 22:16:55 17° ENE 22:18:08 15° E
MetOp-A 4.4 22:12:54 12° S 22:17:55 66° WSW 22:23:15 10° NNW
Cosmos 2219 Rocket 2.9 22:15:57 10° NNW 22:21:15 42° ENE 22:24:46 20° ESE
CZ-4 R/B 3.9 22:16:25 10° NNE 22:21:21 64° ESE 22:25:20 15° S
Cosmos 2242 Rocket 4.0 22:17:25 10° N 22:21:46 48° ENE 22:24:09 24° SE
ARGOS 3.1 22:18:17 18° SSE 22:22:20 81° ENE 22:27:46 10° NNW
Cosmos 1898 Rocket 3.6 22:19:09 12° S 22:23:45 56° ESE 22:28:51 10° NNE
FALCON 9 R/B 4.3 21:55:14 10° WSW 22:26:27 61° S 22:33:41 12° ESE
CZ-4C R/B 3.3 22:26:40 30° SE 22:28:04 50° ENE 22:31:27 10° N
Cosmos 2150 Rocket 4.1 22:22:48 10° S 22:28:04 64° ESE 22:33:30 10° NNE
Cosmos 2237 4.3 22:24:44 10° NNW 22:30:29 80° WSW 22:34:15 22° SSE
Cosmos 2151 4.4 22:29:01 10° SW 22:32:52 36° WNW 22:36:47 10° N
USA 245 3.0 22:32:07 29° SSW 22:33:00 43° WSW 22:35:17 10° NNW
DELTA 2 DEB (DPAF) 4.2 22:31:49 26° SSE 22:34:14 69° ENE 22:38:43 10° N
CARTOSAT-1 4.0 22:34:08 27° SE 22:36:04 46° ENE 22:40:13 10° N
SL-08 RB Rocket 3.6 22:34:43 25° S 22:37:21 85° WSW 22:41:53 10° NNW
Sich 1 3.0 22:34:25 19° S 22:37:35 89° ESE 22:42:01 10° N
Cosmos 1980 4.4 22:33:02 10° NNW 22:38:23 42° ENE 22:41:31 22° ESE
Cosmos 1633 Rocket 3.0 22:36:53 20° S 22:39:52 89° ESE 22:44:16 10° N
Cosmos 1726 2.3 22:37:28 10° NNW 22:41:15 70° W 22:43:05 28° S
Cosmos 2219 3.8 22:37:30 10° SW 22:43:10 59° WNW 22:48:51 10° NNE
Tiangong 1 1.9 22:40:33 10° SW 22:42:38 33° SSW 22:42:38 33° SSW
DMSP B5D2-2 4.3 22:40:24 10° NNE 22:45:28 49° E 22:47:50 29° SSE
NOSS 3-1 (A) 3.3 22:39:39 10° SSW 22:45:31 80° ESE 22:52:03 10° NE
Lacrosse 4 Rocket 3.9 22:42:56 10° N 22:45:31 15° NE 22:48:07 10° E
Cosmos 2333 4.3 22:44:02 10° NNW 22:49:46 76° WSW 22:52:56 28° SSE
Cosmos 1271 Rocket 2.6 22:46:27 10° N 22:50:17 89° W 22:51:39 39° S
Cosmos 2237 Rocket 2.7 22:45:47 10° NNW 22:51:19 49° ENE 22:54:11 27° ESE
SL-14 R/B 4.0 22:48:33 17° SSW 22:51:27 53° W 22:55:23 10° N
Cosmos 1703 3.1 22:50:01 34° S 22:51:37 82° E 22:55:32 10° N
Cosmos 2058 4.4 22:49:38 10° SW 22:53:23 34° WNW 22:57:08 10° N
Cosmos 2082 4.0 22:52:44 29° SSE 22:55:12 46° ESE 23:00:40 10° NE
USA 32 4.1 22:53:22 10° N 22:58:38 75° W 23:01:35 27° S
Iridium 2 3.7 23:01:04 39° SSW 23:02:25 79° W 23:06:18 10° N
COSMOS 2455 4.0 22:57:24 10° NNW 23:02:51 34° NE 23:06:26 19° ESE
Cosmos 2360 Rocket 4.1 22:58:55 10° NW 23:03:07 22° W 23:07:18 10° SSW
Cosmos 1241 Rocket 4.5 22:59:19 22° S 23:03:14 58° ESE 23:09:22 10° NE
Meteor 2-10 4.3 23:00:01 10° NNW 23:05:45 82° W 23:08:39 31° S
ATLAS 2AS CENTAUR R/B 3.1 23:03:26 23° S 23:07:59 51° ESE 23:15:39 10° NE
Meteor 1-4 Rocket 3.4 23:05:02 10° NNW 23:08:39 45° W 23:09:49 33° SW
ERBS 4.0 23:12:03 24° ENE 23:12:03 24° ENE 23:13:39 10° ENE
Nadezhda 1 Rocket 3.9 23:08:18 10° N 23:14:25 85° W 23:17:27 32° S
Cosmos 1933 4.1 23:16:33 10° N 23:20:22 37° ENE 23:20:45 36° E
Cosmos 1626 2.1 23:20:38 62° SSW 23:21:13 85° W 23:24:59 10° N
IGS 5A 3.7 23:21:56 44° SSW 23:23:01 60° W 23:27:10 10° NNW
Cosmos 1937 Rocket 4.0 23:20:01 15° SW 23:24:13 58° WNW 23:29:23 10° NNE
COS B Rocket 4.2 23:22:24 10° NNE 23:25:49 34° E 23:25:49 34° E
ATLAS 3B R/B 3.2 23:19:24 10° NNW 23:26:18 52° NE 23:30:02 26° ESE
Cosmos 1745 Rocket 4.4 23:22:21 20° SSW 23:26:47 60° W 23:32:54 10° N
Cosmos 2227 Rocket 2.1 23:27:04 27° SSW 23:30:15 88° WNW 23:35:58 10° NNE
Cosmos 1470 Rocket 4.1 23:28:46 31° SW 23:30:31 51° W 23:34:46 10° N
Okean 1-7 4.1 23:27:55 10° NNE 23:31:41 29° ENE 23:32:05 29° E
Cosmos 1933 Rocket 4.2 23:29:58 31° SW 23:31:50 53° W 23:36:14 10° N
Cosmos 1703 Rocket 3.8 23:30:13 10° N 23:34:28 51° E 23:35:00 48° ESE
Cosmos 1709 Rocket 3.9 23:32:45 40° SSE 23:35:04 72° E 23:41:10 10° NNE
Cosmos 990 Rocket 4.3 23:33:45 25° SW 23:36:44 63° WNW 23:41:51 10° NNE
Cosmos 2221 Rocket 3.8 23:35:06 10° N 23:39:37 56° E 23:40:13 51° ESE
Terra 2.8 23:39:02 30° SW 23:40:38 39° W 23:45:06 10° NNW
Spot 4 4.4 23:39:31 38° SSW 23:40:58 51° W 23:45:43 10° NNW
Cosmos 2333 Rocket 2.5 23:35:44 10° NNW 23:41:23 60° WSW 23:43:13 41° SSW
H-2A R/B 3.1 23:39:08 26° SW 23:41:26 39° W 23:46:29 10° NNW
SL-16 R/B 2.5 23:38:23 10° NNW 23:44:00 58° ENE 23:45:52 39° ESE
Cosmos 1269 Rocket 4.0 23:41:26 10° NNW 23:46:47 74° ENE 23:48:05 51° SE
NOSS 0 Rocket 4.4 23:41:18 10° NW 23:47:11 48° WSW 23:49:18 35° SSW
GEOS 3 Rocket 4.3 23:46:31 28° ESE 23:48:52 47° NE 23:53:49 10° NNW
Cosmos 1455 3.5 23:49:21 10° NNW 23:52:44 31° W 23:53:10 30° WSW
Cosmos 1900 4.4 23:48:16 10° NNW 23:53:15 72° ENE 23:54:15 55° ESE
